Flag for Germany Weather past 2 weeks in Bayreuth, Bavaria, Germany

Now
28 °F

Mostly cloudy.


Feels Like: 28 °F
Forecast: 27 / 43 °F
Wind: No wind

Location: Grafenwoehr

Current Time: Feb 28, 2015 at 1:59:06 AM

Latest Report: Feb 28, 2015 at 12:58 AM


Visibility: N/A

Pressure: 30.10 "Hg

Humidity: 86%

Dew point: 25 °F

Location of BayreuthLocation

Historic Weather in Bayreuth — Graph

°F

Bayreuth temperature yesterday

Maximum temperature yesterday: 46 °F (at 1:58 PM)
Minimum temperature yesterday: 18 °F (at 4:58 AM)
Average temperature yesterday: 32 °F

Past Weeks' High & Low Weather Summary

 TemperatureHumidityPressure
High48 °F (Feb 21, 2:58 PM)100% (Feb 12, 11:58 PM)30.78 "Hg (Feb 12, 11:58 PM)
Low18 °F (Feb 27, 4:58 AM)40% (Feb 27, 2:58 PM)29.52 "Hg (Feb 23, 5:59 PM)
Average31 °F86%30.09 "Hg
* Reported Feb 12 11:58 PM — Feb 27 11:58 PM, Bayreuth, Weather by CustomWeather, © 2015

Note: Actual official high and low records may vary slightly from our data, if they occured in-between our weather recording intervals... More about our weather records

Advertising

Bayreuth weather history for previous 24 hours

 ConditionsComfort  
Time TempWeatherWind HumidityBarometerVisibility
11:58 PM
Fri, Feb 27
28 °FPassing clouds.No wind86%30.08 "HgN/A
10:58 PM28 °FClear.2 mph86%30.07 "HgN/A
9:58 PM28 °FClear.No wind80%30.06 "HgN/A
8:58 PM30 °FPassing clouds.1 mph75%30.06 "HgN/A
7:58 PM32 °FClear.No wind69%30.04 "HgN/A
6:58 PM32 °FClear.2 mph69%30.01 "HgN/A
5:58 PM37 °FClear.1 mph56%29.97 "HgN/A
4:58 PM45 °FSunny.3 mph42%29.93 "HgN/A
3:58 PM46 °FSunny.5 mph43%29.91 "HgN/A
2:58 PM46 °FSunny.6 mph40%29.90 "HgN/A
1:58 PM46 °FSunny.6 mph46%29.90 "HgN/A
12:58 PM45 °FSunny.5 mph53%29.90 "HgN/A
11:58 AM43 °FSunny.3 mph61%29.90 "HgN/A
10:58 AM39 °FSunny.3 mph70%29.91 "HgN/A
9:58 AM34 °FSunny.1 mph81%29.92 "HgN/A
8:58 AM27 °FSunny.No wind93%29.93 "HgN/A
7:58 AM19 °FSunny.1 mph93%29.93 "HgN/A
6:58 AM19 °FClear.No wind93%29.93 "HgN/A
5:58 AM18 °FClear.1 mph93%29.92 "HgN/A
4:58 AM18 °FClear.No wind93%29.94 "HgN/A
3:58 AM19 °FClear.No wind93%29.94 "HgN/A
1:58 AM21 °FClear.No wind93%29.98 "HgN/A
Weather by CustomWeather, © 2015

See weather overviewHow to use our weather pages